Weather History for KMAF - September, 2012

Change the Weather History Date:

Sunday, September 16, 2012

  Actual Average Record
Temperature  
Mean Temperature 67 °F 74 °F  
Max Temperature 82 °F 87 °F 99 °F (1997)
Min Temperature 51 °F 62 °F 49 °F (1993)
Degree Days  
Heating Degree Days 0 0  
Month to date heating degree days 11 0  
Since 1 July heating degree days 11 0  
Cooling Degree Days 2 10  
Month to date cooling degree days 206 188  
Year to date cooling degree days 2653 2072  
Growing Degree Days 16 (Base 50)    
Moisture  
Dew Point 54 °F    
Average Humidity 68    
Maximum Humidity 100    
Minimum Humidity 36    
Precipitation  
Precipitation 0.00 in 0.05 in 0.79 in (1974)
Month to date precipitation 0.45 1.06  
Year to date precipitation 7.16 10.78  
Sea Level Pressure  
Sea Level Pressure 30.00 in    
Wind  
Wind Speed 3 mph (South)    
Max Wind Speed 9 mph    
Max Gust Speed 15 mph    
Visibility 9 miles    
Events      
T = Trace of Precipitation, MM = Missing Value Source: NWS Daily Summary

Daily Weather History Graph

Daily Weather History Graph

Search for Another Location

Airport or City:

Trip Planner

Search our weather history database for the weather conditions in past years. The results will help you decide how hot, cold, wet, or windy it might be!

Date:

Astronomy

Sep. 16, 2012 Rise Set
Actual Time 7:33 AM CDT 7:52 PM CDT
Civil Twilight 7:09 AM CDT 8:17 PM CDT
Nautical Twilight 6:40 AM CDT 8:45 PM CDT
Astronomical Twilight 6:11 AM CDT 9:14 PM CDT
Moon 8:09 AM CDT (9/16) 8:07 PM CDT (9/16)
Length of Visible Light 13h 07m
Length of Day
12h 19m
New Moon, 0% of the Moon is Illuminated
Sep 16
New Moon
Sep 22
First Quarter
Sep 29
Full
Oct 8
Last Quarter
Oct 15
New

Hourly Weather History & Observations

Time (CDT) Temp. Heat Index Dew Point Humidity Pressure Visibility Wind Dir Wind Speed Gust Speed Precip Events Conditions
12:53 AM 55.9 °F - 55.0 °F 97% 30.11 in 10.0 mi SW 4.6 mph - N/A   Clear
1:53 AM 55.9 °F - 55.0 °F 97% 30.10 in 10.0 mi SSW 4.6 mph - N/A   Clear
2:53 AM 55.9 °F - 54.0 °F 93% 30.09 in 10.0 mi WSW 3.5 mph - N/A   Clear
3:53 AM 55.0 °F - 54.0 °F 96% 30.06 in 9.0 mi WSW 4.6 mph - N/A   Clear
4:53 AM 53.1 °F - 53.1 °F 100% 30.06 in 5.0 mi Calm Calm - N/A   Clear
5:53 AM 53.1 °F - 52.0 °F 96% 30.05 in 5.0 mi Calm Calm - N/A   Clear
6:53 AM 51.8 °F - 51.8 °F 100% 30.12 in 3.0 mi Calm Calm - N/A   Clear
7:53 AM 53.1 °F - 52.0 °F 96% 30.05 in 5.0 mi Calm Calm - N/A   Clear
8:53 AM 57.0 °F - 55.0 °F 93% 30.05 in 5.0 mi Calm Calm - N/A   Clear
9:53 AM 61.0 °F - 57.0 °F 87% 30.05 in 10.0 mi South 3.5 mph - N/A   Clear
10:53 AM 66.0 °F - 57.9 °F 75% 30.04 in 10.0 mi Calm Calm - N/A   Clear
11:53 AM 68.0 °F - 55.9 °F 65% 30.03 in 10.0 mi Calm Calm - N/A   Clear
12:53 PM 73.0 °F - 55.0 °F 53% 30.00 in 10.0 mi SE 4.6 mph - N/A   Clear
1:53 PM 75.9 °F - 52.0 °F 43% 29.98 in 10.0 mi Calm Calm - N/A   Clear
2:53 PM 75.2 °F - 53.6 °F 47% 30.04 in 10.0 mi Variable 4.6 mph - N/A   Clear
3:53 PM 80.1 °F 80.0 °F 54.0 °F 40% 29.92 in 10.0 mi North 5.8 mph - N/A   Clear
4:53 PM 79.0 °F - 54.0 °F 42% 29.91 in 10.0 mi Calm Calm - N/A   Scattered Clouds
5:53 PM 81.0 °F - 52.0 °F 36% 29.89 in 10.0 mi Calm Calm - N/A   Clear
6:53 PM 79.0 °F - 52.0 °F 39% 29.89 in 10.0 mi SW 3.5 mph - N/A   Clear
7:53 PM 78.1 °F - 53.1 °F 42% 29.89 in 9.0 mi Calm Calm - N/A   Clear
8:53 PM 73.9 °F - 57.0 °F 55% 29.90 in 10.0 mi SE 4.6 mph - N/A   Clear
9:53 PM 70.0 °F - 55.9 °F 61% 29.91 in 10.0 mi SE 6.9 mph - N/A   Clear
10:53 PM 68.0 °F - 57.9 °F 70% 29.91 in 10.0 mi SSE 5.8 mph - N/A   Clear
11:53 PM 66.0 °F - 57.9 °F 75% 29.90 in 10.0 mi SSE 6.9 mph - N/A   Clear